Flag for Australia Weather past 2 weeks in Brisbane, Queensland, Australia

Now
55 °F

Partly cloudy.


Feels Like: 53 °F
Forecast: 52 / 70 °F
Wind: 8 mph from Southwest

Location: Brisbane Airport M. O

Current Time: Jul 24, 2014 at 4:43:52 AM

Latest Report: Jul 24, 2014 at 4:00 AM


Visibility: N/A

Pressure: 30.15 "Hg

Humidity: 82%

Dew point: 50 °F

Location of BrisbaneLocation

Historic Weather in Brisbane — Graph

°F

Brisbane temperature yesterday

Maximum temperature yesterday: 66 °F (at 11:30 AM)
Minimum temperature yesterday: 50 °F (at 1:00 AM)
Average temperature yesterday: 60 °F

Past Weeks' High & Low Weather Summary

 TemperatureHumidityPressure
High72 °F (Jul 12, 2:00 PM)100% (Jul 16, 2:00 AM)30.36 "Hg (Jul 16, 2:00 AM)
Low39 °F (Jul 9, 4:00 AM)14% (Jul 12, 3:30 PM)29.77 "Hg (Jul 9, 5:00 PM)
Average58 °F58%30.09 "Hg
* Reported Jul 9 3:00 AM — Jul 24 3:00 AM, Brisbane, Weather by CustomWeather, © 2014

Note: Actual official high and low records may vary slightly from our data, if they occured in-between our weather recording intervals... More about our weather records

Advertising

Brisbane weather history for previous 24 hours

 ConditionsComfort  
Time TempWeatherWind HumidityBarometerVisibility
3:00 AM
Jul 24
55 °FPassing clouds.9 mph82%30.15 "HgN/A
2:30 AM55 °FPassing clouds.8 mph82%30.15 "HgN/A
2:00 AM57 °FPassing clouds.8 mph77%30.15 "HgN/A
1:30 AM57 °FPassing clouds.9 mph82%30.15 "HgN/A
1:00 AM55 °FPassing clouds.8 mph88%30.15 "HgN/A
12:30 AM55 °FPartly cloudy.6 mph88%30.15 "HgN/A
12:00 AM55 °FPassing clouds.6 mph88%30.15 "HgN/A
11:00 PM
Jul 23
57 °FClear.6 mph82%30.18 "Hg10 mi
7:00 PM61 °FClear.6 mph77%30.15 "Hg10 mi
6:00 PM61 °FPassing clouds.6 mph77%30.15 "HgN/A
3:30 PM66 °FPassing clouds.10 mph60%30.12 "HgN/A
3:00 PM66 °FPassing clouds.9 mph56%30.12 "HgN/A
2:00 PM66 °FPassing clouds.8 mph56%30.12 "HgN/A
1:00 PM66 °FPassing clouds.7 mph60%30.12 "HgN/A
12:30 PM66 °FScattered clouds.8 mph56%30.12 "HgN/A
12:00 PM66 °FScattered clouds.5 mph52%30.15 "HgN/A
11:30 AM66 °FPassing clouds.8 mph56%30.18 "HgN/A
11:00 AM64 °FPassing clouds.8 mph56%30.18 "HgN/A
10:30 AM63 °FPassing clouds.10 mph59%30.21 "HgN/A
10:00 AM61 °FPassing clouds.10 mph63%30.21 "HgN/A
9:00 AM57 °FPassing clouds.13 mph72%30.21 "HgN/A
Weather by CustomWeather, © 2014

See weather overviewHow to use our weather pages